Regional Weather Roundup
Issued by NWS Cleveland, OH

Home | Current Version | Previous Version | Graphics & Text | Print | Product List | Glossary On
Versions: 1 2 3 4 5 6 7 8 9 10 11 12 13 14 15 16 17 18 19 20 21 22 23 24 25 26 27 28 29 30 31 32 33 34 35 36 37 38 39 40 41 42 43 44 45 46 47 48 49 50
000
ASUS41 KCLE 061200
RWRCLE
OHIO REGIONAL WEATHER ROUNDUP
NATIONAL WEATHER SERVICE WILMINGTON, OH
800 AM EDT WED MAY 06 2015

NOTE: "FAIR" INDICATES FEW OR NO CLOUDS BELOW 12,000 FEET WITH NO
SIGNIFICANT WEATHER AND/OR OBSTRUCTIONS TO VISIBILITY.

OHZ001>008-015>018-024>027-034-035-043-044-061300-
   NORTHWEST OHIO

CITY           SKY/WX    TMP DP  RH WIND       PRES   REMARKS
DEFIANCE       FOG       53  52  96 E5        30.24R VSB 1/4
FINDLAY        FOG       53  52  96 E5        30.22R VSB 1/4
TOLEDO EXPRESS FOG       51  51 100 NE8       30.24R VSB 1/8
TOLEDO EXEC    FOG       51  49  92 NE7       30.25R VSB 1/4
LIMA           FOG       54  54 100 NE3       30.22R VSB<1/4
$$

OHZ009>014-019>023-028>033-038-089-061300-
   NORTHEAST OHIO

CITY           SKY/WX    TMP DP  RH WIND       PRES   REMARKS
CLE-HOPKINS    FOG       54  54 100 NW3       30.25R VSB 1/16
CLE-LAKEFRONT  CLOUDY    53  51  93 NE6       30.24R FOG
CUY CO. ARPT   FOG       59  57  94 N6        30.24R VSB 1/4
LORAIN-ELYRIA  FOG       50  50 100 N3        30.24R VSB<1/4
ASHTABULA      LGT RAIN  56  55  97 CALM      30.24S FOG
AKRON-CANTON   FOG       60  58  92 SE5       30.23S VSB 1/8
WOOSTER        NOT AVBL
MANSFIELD      FOG       57  57 100 SE5       30.23R VSB<1/4
YOUNGSTOWN     PTSUNNY   60  58  92 SE7       30.23S FOG
$$

OHZ042-051>053-060>062-070>072-077>081-061300-
  SOUTHWEST OHIO

CITY           SKY/WX    TMP DP  RH WIND       PRES   REMARKS
CINC-COVINGTON MOSUNNY   59  55  87 CALM      30.22R
CINC-LUNKEN    SUNNY     57  56  96 CALM      30.22R
HAMILTON       SUNNY     59  56  89 CALM      30.22R
DAYTON         NOT AVBL
WRIGHT-PAT AFB NOT AVBL
DAYTON GENERAL SUNNY     63  58  83 CALM      30.21R
WILMINGTON     SUNNY     64  55  72 CALM      30.22R
$$

OHZ036-037-039>041-045>050-054>059-063>069-073>076-082>088-061300-
  CENTRAL AND SOUTHEAST OHIO

CITY           SKY/WX    TMP DP  RH WIND       PRES   REMARKS
COLUMBUS       SUNNY     62  56  80 CALM      30.22R
OSU AIRPORT    SUNNY     58  55  90 CALM      30.22R FOG
BOLTON FIELD   NOT AVBL
RICKENBACK AFB NOT AVBL
NEWARK         FOG       58  57  97 CALM      30.22R VSB<1/4
MARION         FOG       58  58 100 S6        30.23R VSB<1/4
LANCASTER      SUNNY     59  55  87 CALM      30.23R FOG
ZANESVILLE     FOG       56  55  97 CALM      30.23R VSB<1/4
NEW PHILLY     FOG       61  59  93 CALM      30.24R VSB 1/2
$$



USA.gov is the U.S. government's official web portal to all federal, state and local government web resources and services.